Theta_e
320 323 326 330 332 331 336 335 331 329 328 327 327 325 323 324 326 326 336 329 334 329 331 329 326 326 324 323 318 315 315 317 315 313 313 313 320 318 318 321 323 322 321 319 317 310 310 312 317
322 327 330 334 336 340 338 333 332 326 327 328 327 324 324 328 331 331 332 328 326 325 328 327 327 326 327 325 321 319 316 315 314 315 317 323 319 316 317 319 323 324 323 323 322 318 312 316 317
323 330 328 334 335 338 338 333 332 329 327 327 326 326 326 328 328 328 329 329 326 326 325 325 327 328 327 325 323 322 319 315 315 322 325 317 316 318 320 318 317 319 326 328 326 323 321 316 325
325 335 334 334 334 333 335 333 331 326 326 326 326 326 326 327 326 328 327 325 325 326 323 326 328 328 325 321 320 319 317 317 321 323 325 324 319 317 317 317 315 315 318 321 328 327 323 325 323
334 336 333 332 333 332 329 330 326 324 325 325 325 327 326 328 328 328 327 325 323 324 325 326 327 325 321 319 317 315 316 314 316 321 323 323 323 322 322 315 314 318 320 321 325 325 327 325 325
334 330 327 328 329 329 327 329 329 327 326 325 327 326 326 326 326 326 323 323 326 325 325 326 324 322 319 319 318 317 316 318 319 318 318 318 318 317 317 317 319 319 319 324 324 325 326 326 325
331 328 329 328 330 327 328 330 329 326 328 325 327 326 328 326 325 322 322 324 325 324 324 324 321 321 321 320 320 320 317 318 324 324 324 322 321 322 321 320 319 319 319 324 324 323 323 325 324
331 326 328 326 328 327 327 327 327 328 328 328 326 327 327 327 325 325 325 325 324 324 323 322 322 322 322 321 321 321 320 325 325 324 324 321 319 319 319 318 317 316 316 318 320 322 323 325 326
330 328 328 328 328 327 329 325 329 326 326 326 326 326 327 328 327 326 326 326 325 323 323 323 323 322 322 322 321 320 322 325 325 325 324 322 319 318 319 319 321 323 322 319 318 322 323 326 326
328 327 331 330 327 326 328 326 326 324 324 325 325 326 325 327 327 326 325 324 323 323 323 323 323 323 322 321 321 320 323 326 326 324 325 322 320 320 319 320 322 323 324 325 323 323 325 325 326
329 330 329 329 329 328 327 327 327 324 323 325 324 326 325 327 326 326 322 323 324 323 323 323 323 322 321 321 320 323 324 326 325 325 326 321 323 322 321 321 322 322 321 323 325 323 324 324 325
328 329 330 330 329 328 326 327 326 326 326 326 325 326 326 327 327 325 323 324 324 323 323 323 322 323 320 316 316 322 324 324 323 325 324 323 323 322 320 324 323 323 322 322 323 323 323 324 320
328 329 329 329 328 328 328 326 325 325 329 327 325 325 325 325 325 323 324 324 324 324 323 323 323 320 317 317 319 324 326 326 326 324 324 323 323 324 320 321 324 323 322 322 323 323 323 324 319
329 330 329 329 329 329 328 327 325 326 328 327 326 325 325 325 324 324 324 324 324 323 323 322 322 320 315 316 321 326 328 327 326 325 325 324 323 325 324 320 321 320 320 321 322 323 323 322 319
322 326 327 328 326 324 326 325 325 327 327 327 325 325 324 324 324 324 324 324 324 323 323 323 321 319 316 316 325 327 329 329 328 327 325 325 324 324 325 321 322 322 320 321 322 323 323 323 322
320 320 322 322 323 324 324 326 325 327 327 326 326 325 324 324 324 324 324 324 324 323 323 323 321 316 316 317 325 327 329 330 329 327 326 325 325 324 322 320 322 322 320 321 321 323 323 324 323
318 321 321 321 322 325 323 326 326 327 326 325 327 326 325 325 323 324 324 324 324 323 323 323 319 315 316 319 326 328 327 327 327 327 327 325 324 322 321 320 322 322 320 321 321 323 323 324 322
320 320 322 324 324 324 325 325 325 325 325 325 327 327 326 326 325 324 324 324 323 323 324 321 316 317 316 322 328 329 330 328 327 327 326 325 325 323 323 321 322 322 320 321 321 321 322 324 323
321 321 322 323 324 325 325 326 326 325 325 324 325 327 327 327 326 324 324 323 324 324 324 320 316 318 319 324 329 329 329 328 327 328 327 327 326 324 322 322 321 322 321 322 321 321 322 324 324
319 322 322 322 323 323 324 325 326 325 324 324 325 326 326 326 326 325 324 324 324 324 323 319 319 319 323 323 328 328 329 327 327 327 327 327 327 324 325 323 322 321 321 321 321 322 322 323 324
320 320 323 323 324 323 323 325 325 326 326 326 326 326 325 326 325 325 324 324 324 324 323 319 322 321 325 325 328 327 327 328 327 327 326 326 324 324 323 322 322 321 321 322 321 323 324 325 327
320 322 323 325 325 324 323 325 322 324 324 323 323 325 326 326 325 324 324 324 325 325 322 323 325 326 325 328 325 326 329 328 326 327 326 325 322 322 323 322 321 322 322 321 324 323 323 324 326
321 321 322 324 325 322 323 322 321 322 324 324 322 324 326 326 325 324 324 325 325 326 324 325 327 327 325 329 330 329 329 326 326 326 326 326 323 322 322 322 323 323 323 324 324 323 324 325 325
321 322 322 323 323 324 324 323 326 323 324 324 322 324 325 324 324 324 325 325 326 325 324 327 327 326 326 330 330 329 328 325 324 324 325 326 325 324 322 322 324 324 324 326 325 325 326 323 326
321 321 322 322 324 326 322 323 324 323 323 323 320 324 324 324 324 324 325 326 327 325 324 326 324 327 326 330 329 328 328 325 324 324 325 326 324 325 322 322 324 324 324 325 325 324 326 322 326
316 317 323 325 324 324 323 324 324 322 322 324 323 324 325 325 325 325 325 327 327 325 323 323 324 327 327 329 328 329 329 326 326 322 325 326 325 324 323 322 324 325 323 324 324 326 326 324 325
317 320 319 322 323 323 323 324 324 323 322 325 325 326 326 326 326 325 326 328 327 324 322 322 326 326 327 328 327 329 328 328 327 324 324 323 323 322 322 321 323 325 324 322 324 325 326 325 326
316 318 321 319 323 325 323 324 324 322 323 327 326 325 326 326 326 326 327 328 326 324 322 321 325 326 326 326 328 328 328 329 326 325 324 323 322 322 321 320 319 320 321 323 324 325 324 328 330
315 317 321 320 320 324 322 322 320 321 321 327 325 326 327 327 327 327 328 327 326 325 322 323 325 325 325 326 328 328 329 330 326 324 324 324 324 323 322 322 322 323 323 324 324 325 327 328 329
316 317 320 323 322 320 321 322 322 321 322 326 325 327 327 327 327 327 328 327 325 325 323 322 326 324 324 325 327 328 329 330 327 326 325 325 325 324 324 323 324 324 324 324 324 325 324 327 328
Wind_Speed
8 9 8 2 2 3 4 7 5 7 1 5 5 8 8 2 3 3 19 15 16 12 14 14 10 6 7 7 8 9 11 12 12 12 12 12 11 10 10 12 13 12 13 12 11 14 14 15 14
8 9 5 0 2 1 5 7 5 5 6 5 7 23 6 1 9 15 21 18 12 10 12 9 9 7 7 8 10 12 13 14 14 15 14 12 14 14 13 14 15 14 14 14 12 12 15 14 15
10 3 2 3 3 5 5 8 10 6 12 9 4 10 11 10 14 13 15 19 14 10 5 5 7 7 7 9 12 14 15 16 16 16 16 18 18 18 17 16 17 17 16 16 16 14 14 16 16
8 2 5 2 9 9 7 12 13 2 5 5 6 6 6 8 18 18 18 14 12 9 5 7 8 8 9 10 14 15 16 17 17 18 19 20 22 21 21 20 19 18 19 19 19 18 16 16 18
7 2 2 4 7 7 10 14 8 4 4 7 2 2 4 16 13 17 17 14 12 10 9 10 10 10 10 11 13 13 14 16 18 21 22 23 23 22 23 23 22 21 21 20 20 21 19 18 19
3 1 1 5 5 5 6 16 3 2 7 5 9 14 10 16 18 19 14 13 14 12 11 13 12 11 11 14 14 13 12 12 14 17 19 21 23 25 26 25 24 25 26 23 24 23 22 20 17
4 3 5 5 13 10 2 13 7 11 5 7 15 7 7 23 19 18 18 18 17 12 13 14 12 10 12 15 16 15 16 14 13 15 19 20 22 25 26 26 26 26 26 26 27 25 24 24 21
7 4 4 5 4 10 5 10 20 11 12 14 11 7 6 26 23 20 20 17 14 12 15 15 11 11 14 15 15 15 16 14 14 16 18 15 15 15 15 16 18 20 21 22 24 25 26 25 23
12 2 8 7 7 10 30 3 29 15 7 9 10 14 19 16 26 25 23 20 16 16 14 12 13 14 13 13 15 18 16 16 16 18 16 19 16 12 12 13 14 14 15 15 19 23 26 25 24
10 6 12 15 10 10 23 12 22 8 14 13 22 15 14 25 30 30 25 24 19 16 17 17 16 12 11 13 16 16 16 17 17 16 15 17 11 12 11 11 11 13 13 17 18 21 22 24 25
12 16 19 24 26 28 25 25 27 9 6 18 22 13 22 27 32 28 22 18 15 21 22 21 16 11 12 15 15 13 14 17 16 14 18 15 11 10 10 10 11 12 15 14 15 19 22 23 24
7 21 30 34 34 29 20 31 24 18 17 26 25 21 26 30 32 28 21 19 22 25 27 24 18 13 11 13 11 10 11 11 13 16 16 13 11 9 10 10 10 11 10 12 14 17 19 22 21
13 25 31 31 31 35 35 23 23 20 26 27 22 20 29 30 27 23 20 20 23 26 28 22 17 12 11 11 7 8 9 9 11 11 13 14 14 12 10 11 14 12 11 12 12 16 20 21 18
18 24 28 30 32 35 26 27 18 24 25 27 27 26 27 30 27 26 28 26 27 28 27 21 14 10 11 8 6 9 9 10 11 11 12 15 16 15 11 11 13 13 14 13 13 13 18 21 19
24 21 20 22 22 19 28 18 13 29 29 29 25 24 26 29 28 28 31 31 30 28 23 17 12 10 8 5 5 8 11 12 14 13 12 13 15 15 15 14 13 11 13 14 16 14 17 18 20
7 5 9 11 15 29 11 24 16 32 30 30 26 27 29 30 29 31 33 30 30 28 23 14 11 8 7 4 6 10 12 15 15 14 12 12 14 14 15 14 12 12 13 13 17 17 17 18 19
5 13 17 13 12 12 9 22 19 32 30 29 30 29 30 33 33 34 34 34 33 29 21 14 10 5 4 3 5 10 13 14 13 13 12 11 11 11 13 11 10 11 11 12 16 18 18 18 19
12 11 5 17 21 8 14 16 20 32 27 29 33 28 30 31 36 35 37 36 32 25 17 12 8 3 2 2 4 8 13 14 13 11 9 9 10 11 11 8 9 10 8 10 16 21 19 19 19
8 6 9 20 24 5 12 15 23 18 18 20 28 32 33 24 26 32 37 34 29 22 15 13 8 5 5 3 6 10 15 15 14 9 10 10 8 8 9 9 10 7 5 7 14 16 20 19 15
12 14 18 21 23 7 17 18 21 9 7 21 30 34 33 19 22 29 37 34 28 20 15 12 8 5 4 2 6 11 14 12 14 8 7 9 10 6 10 9 7 5 4 10 14 16 19 17 16
16 17 17 18 20 16 10 15 9 5 6 14 23 27 20 23 31 37 36 32 26 18 15 12 8 5 2 4 5 9 8 11 12 7 6 8 6 3 9 8 7 7 7 10 12 17 18 17 18
19 16 19 15 12 8 6 7 5 6 6 5 14 15 19 28 34 38 37 32 25 17 14 11 9 5 6 3 3 7 10 13 12 5 6 2 1 6 8 8 9 8 8 11 12 17 19 16 17
18 18 18 20 14 9 22 4 8 6 6 9 10 11 19 31 35 41 37 31 20 16 16 12 9 5 6 5 4 8 11 9 7 3 3 2 3 5 10 11 11 11 10 9 10 15 15 15 17
23 10 12 12 8 11 15 7 15 5 8 5 2 17 31 34 36 36 33 25 20 16 15 13 10 5 3 5 3 8 7 8 7 4 3 4 5 8 13 13 15 12 12 10 10 11 15 12 19
13 10 4 3 3 11 9 6 10 6 8 8 9 20 26 31 33 34 32 27 21 20 17 14 9 7 5 6 5 6 6 7 7 6 5 4 5 10 17 16 15 12 12 10 9 11 14 11 16
19 14 8 7 6 4 6 5 10 9 6 13 19 26 28 30 31 31 31 25 21 20 17 12 8 7 10 9 4 2 6 4 6 8 10 2 5 12 17 15 15 10 11 9 8 11 11 12 16
14 15 21 4 3 2 4 7 9 7 6 6 16 25 30 32 32 33 29 24 21 19 16 11 10 9 11 9 4 2 6 6 6 8 9 5 9 11 16 14 15 10 11 9 8 10 10 13 16
25 6 7 2 10 6 4 4 5 1 7 6 8 16 28 30 32 31 29 25 19 17 14 12 10 11 10 5 5 4 3 7 6 6 7 8 8 9 13 13 12 12 12 11 9 9 10 10 16
10 10 6 5 6 8 3 7 8 13 11 16 13 26 33 35 35 33 30 24 18 18 16 15 12 13 11 6 7 4 0 4 5 6 6 6 7 9 11 12 13 15 16 12 10 12 14 15 14
15 15 10 8 5 2 6 9 4 11 15 17 16 28 34 36 36 32 29 25 22 22 18 17 15 12 10 9 9 6 3 2 4 7 5 4 7 11 12 16 16 18 17 14 14 16 14 16 17
Wind_Direction
161 157 166 200 31 61 265 259 235 290 287 207 149 124 141 116 177 219 147 159 173 188 193 204 204 234 245 251 276 275 273 267 269 270 272 272 255 259 265 269 271 275 281 274 260 246 243 233 235
168 161 176 279 98 88 260 243 302 239 231 178 135 130 102 223 139 151 161 178 197 194 195 213 222 244 253 268 288 283 278 274 276 272 276 270 274 279 270 261 261 265 272 268 266 252 243 244 238
173 193 273 164 186 207 220 254 233 279 207 207 142 130 147 168 172 176 182 182 189 185 215 239 234 232 239 267 274 275 273 272 271 267 267 278 277 277 274 265 263 266 263 264 263 257 248 242 240
181 220 254 187 237 265 245 267 272 277 355 290 157 77 87 163 163 182 177 174 188 196 217 227 227 229 249 276 288 285 276 270 268 269 269 273 277 275 271 270 268 264 261 258 257 263 251 243 242
197 225 261 262 254 259 285 277 239 348 351 69 105 155 109 163 189 179 176 185 203 205 207 218 232 245 277 285 289 292 287 281 271 268 269 273 273 274 268 269 268 268 263 257 249 247 251 237 239
209 256 306 254 249 264 284 277 258 261 274 154 114 143 168 186 185 174 181 196 209 213 208 220 244 256 262 293 295 303 294 288 279 272 270 270 269 267 265 266 265 264 261 253 247 248 243 240 235
164 102 237 265 285 301 204 316 280 243 229 237 166 139 189 183 191 184 194 201 210 223 228 235 247 249 287 297 300 302 308 297 284 281 286 283 278 270 266 266 263 260 255 249 244 242 242 239 235
201 128 271 245 249 279 280 330 330 337 287 281 195 172 191 198 190 191 193 209 216 225 234 238 241 256 278 289 298 297 300 288 290 295 300 298 296 283 270 263 258 258 255 252 245 237 235 234 232
204 160 254 239 229 252 281 351 302 302 323 282 251 247 259 203 183 188 192 204 215 224 235 245 234 248 271 273 288 295 285 282 294 309 312 312 299 288 279 266 252 256 257 246 240 234 231 227 230
187 189 236 236 256 274 283 281 290 294 316 309 314 285 228 183 186 191 201 208 213 221 229 234 228 252 265 281 292 298 290 290 300 303 306 305 297 296 282 269 257 260 260 250 240 231 228 224 226
207 226 242 265 261 268 269 283 282 279 293 294 290 210 181 186 189 199 213 214 217 215 218 217 228 238 274 300 303 303 290 285 285 290 297 293 290 296 276 272 255 253 255 256 241 228 222 222 224
266 243 244 253 263 268 267 276 271 253 275 292 290 243 198 188 194 206 206 209 213 217 208 205 215 249 280 305 306 317 309 301 296 288 290 276 275 287 277 265 261 255 255 249 240 233 222 218 222
236 242 248 255 264 267 270 260 257 250 277 282 287 223 202 204 206 207 207 209 220 216 206 213 232 260 298 307 306 325 344 318 311 292 279 278 283 273 283 271 261 262 263 256 243 230 222 217 216
238 250 254 259 263 267 265 269 252 257 280 276 275 225 207 209 211 205 204 210 211 208 215 221 234 261 301 323 324 324 322 320 315 304 283 276 278 274 276 282 268 259 267 253 241 225 216 219 216
257 258 264 261 254 259 270 269 248 268 268 269 235 221 209 211 204 217 217 219 224 219 216 220 237 264 308 328 319 336 337 325 314 309 294 282 279 271 271 280 271 264 269 251 234 221 219 221 213
297 272 258 247 260 262 238 269 273 269 262 251 233 218 217 213 214 227 218 221 215 217 211 220 239 275 312 317 328 333 322 319 311 301 294 287 276 271 266 265 261 266 267 248 230 220 213 212 209
229 257 260 279 245 260 208 266 268 275 252 235 238 240 233 235 219 224 217 219 216 216 212 223 232 264 310 308 321 321 326 319 308 291 289 281 273 271 264 248 256 268 266 246 227 217 209 204 203
220 237 223 255 259 254 268 264 270 264 244 227 227 236 244 243 233 220 208 209 213 209 214 220 214 231 203 204 286 302 324 329 325 305 298 292 283 263 256 242 257 265 262 246 211 207 207 201 206
242 236 246 262 268 277 267 269 271 257 241 219 222 235 245 248 236 213 204 204 204 207 210 203 204 185 177 212 285 306 314 327 331 305 293 289 297 268 240 229 241 256 248 214 193 198 199 198 204
229 241 249 272 270 261 274 281 287 252 225 220 220 234 244 226 205 197 193 200 208 204 198 196 190 172 155 269 273 305 314 329 335 307 307 306 294 254 234 220 228 214 198 180 184 191 194 201 197
227 229 243 243 276 279 276 279 265 292 226 231 241 247 247 209 184 183 192 200 199 195 195 192 180 164 159 208 292 317 323 335 337 318 305 316 294 243 183 202 196 183 174 175 180 182 189 195 189
234 226 241 251 255 257 140 281 277 237 259 246 271 284 243 194 190 189 193 195 189 191 186 177 179 168 207 222 304 333 333 336 334 320 318 340 356 159 176 173 166 164 161 172 187 195 189 195 195
228 223 233 244 247 259 280 295 267 270 268 266 287 262 202 188 192 192 194 190 184 186 180 177 178 204 226 243 331 341 334 346 348 348 0 30 145 160 162 153 149 154 158 160 171 176 187 194 192
231 238 238 255 242 253 243 216 268 221 226 252 228 197 184 187 187 189 188 183 179 178 174 178 185 206 230 189 265 320 332 5 6 355 325 351 187 177 166 163 160 153 155 150 162 185 182 194 189
212 202 248 284 198 241 210 184 239 228 230 223 193 203 191 188 185 186 180 178 177 177 177 181 199 196 219 198 234 317 334 11 15 7 348 3 154 170 173 174 171 151 156 152 164 172 179 184 180
221 211 204 185 222 239 203 228 260 226 253 230 196 193 184 181 186 181 179 177 178 177 181 185 177 195 182 190 261 321 359 356 15 24 7 17 146 167 174 179 172 164 170 168 174 174 185 179 187
222 213 224 203 315 137 214 282 320 267 151 136 137 160 172 182 183 179 178 180 176 178 184 184 176 189 181 192 267 83 18 25 20 18 23 78 132 150 174 176 178 164 164 176 181 185 180 178 178
219 142 231 303 203 212 265 247 231 151 149 148 155 155 169 178 177 176 179 179 178 181 181 185 186 187 187 192 171 105 51 30 32 25 45 93 123 153 171 180 180 178 170 174 174 176 168 175 175
199 201 201 175 166 192 211 260 199 203 177 172 173 167 174 178 177 178 179 178 180 181 179 179 188 186 183 185 174 147 155 21 52 45 71 102 96 141 159 163 159 159 165 162 160 159 153 164 161
209 205 180 213 233 167 158 257 244 218 171 165 169 174 180 179 177 179 178 179 182 184 181 182 178 187 191 186 170 157 166 33 61 53 63 116 103 126 136 152 149 153 160 161 154 154 155 156 158